Memphis, TN

4:40 AM CST on February 25, 2017 (GMT -0600)
Memphis International

Weather History for KMEM - March, 2013

Change the Weather History Date:

Wednesday, March 20, 2013

  Actual Average Record
Temperature  
Mean Temperature 47 °F 55 °F  
Max Temperature 55 °F 65 °F 85 °F (2012)
Min Temperature 38 °F 45 °F 18 °F (1965)
Degree Days  
Heating Degree Days 18 10  
Month to date heating degree days 312 260  
Since 1 July heating degree days 2510 2710  
Cooling Degree Days 0 1  
Month to date cooling degree days 2 5  
Year to date cooling degree days 11 8  
Moisture  
Dew Point 23 °F    
Average Humidity 41    
Maximum Humidity 59    
Minimum Humidity 23    
Precipitation  
Precipitation 0.00 in 0.16 in 2.90 in (1980)
Month to date precipitation 1.86 3.21  
Year to date precipitation 15.43 11.58  
Snow  
Snow 0.00 in 0.10 in 8.00 in (1876)
Month to date snowfall T 0.4  
Since 1 July snowfall 0.9 3.8  
Snow Depth 0.00 in    
Sea Level Pressure  
Sea Level Pressure 30.17 in    
Wind  
Wind Speed 10 mph (NNW)    
Max Wind Speed 23 mph    
Max Gust Speed 31 mph    
Visibility 10 miles    
Events      
T = Trace of Precipitation, MM = Missing Value Source: NWS Daily Summary

Daily Weather History Graph

Daily Weather History Graph

Search for Another Location

Airport or City:

Trip Planner

Search our weather history database for the weather conditions in past years. The results will help you decide how hot, cold, wet, or windy it might be!

Date:

Astronomy

Mar. 20, 2013 Rise Set
Actual Time 7:03 AM CDT 7:11 PM CDT
Civil Twilight 6:37 AM CDT 7:37 PM CDT
Nautical Twilight 6:08 AM CDT 8:06 PM CDT
Astronomical Twilight 5:38 AM CDT 8:36 PM CDT
Moon 12:59 PM CDT (3/20) 2:30 AM CDT (3/20)
Length of Visible Light 12h 59m
Length of Day
12h 08m
First Quarter, 59% of the Moon is Illuminated
Mar 20
First Quarter
Mar 27
Full
Apr 2
Last Quarter
Apr 10
New
Apr 18
First Quarter

Hourly Weather History & Observations

Time (CDT) Temp. Windchill Dew Point Humidity Pressure Visibility Wind Dir Wind Speed Gust Speed Precip Events Conditions
12:54 AM 46.9 °F - 21.0 °F 36% 30.20 in 10.0 mi NE 8.1 mph - N/A   Overcast
1:54 AM 46.9 °F - 21.0 °F 36% 30.20 in 10.0 mi NNE 6.9 mph - N/A   Overcast
2:54 AM 46.0 °F 44.8 °F 21.0 °F 37% 30.20 in 10.0 mi NNE 3.5 mph - N/A   Overcast
3:54 AM 44.1 °F - 21.0 °F 40% 30.17 in 10.0 mi Calm Calm - N/A   Scattered Clouds
4:54 AM 42.1 °F - 21.9 °F 45% 30.17 in 10.0 mi Calm Calm - N/A   Clear
5:54 AM 39.0 °F - 24.1 °F 55% 30.19 in 10.0 mi Calm Calm - N/A   Partly Cloudy
6:54 AM 39.0 °F - 26.1 °F 60% 30.20 in 10.0 mi Calm Calm - N/A   Partly Cloudy
7:54 AM 39.9 °F - 25.0 °F 55% 30.23 in 10.0 mi Calm Calm - N/A   Scattered Clouds
8:54 AM 48.0 °F - 25.0 °F 41% 30.24 in 10.0 mi North 8.1 mph - N/A   Partly Cloudy
9:54 AM 51.1 °F - 26.1 °F 38% 30.24 in 10.0 mi NW 16.1 mph 20.7 mph N/A   Partly Cloudy
10:54 AM 52.0 °F - 30.9 °F 45% 30.25 in 10.0 mi NNW 12.7 mph - N/A   Partly Cloudy
11:54 AM 53.1 °F - 32.0 °F 45% 30.24 in 10.0 mi NW 12.7 mph 23.0 mph N/A   Partly Cloudy
12:54 PM 53.1 °F - 34.0 °F 48% 30.22 in 10.0 mi NW 12.7 mph - N/A   Scattered Clouds
1:54 PM 54.0 °F - 33.1 °F 45% 30.19 in 10.0 mi NW 15.0 mph 24.2 mph N/A   Mostly Cloudy
2:54 PM 53.1 °F - 33.1 °F 47% 30.16 in 10.0 mi NW 16.1 mph 26.5 mph N/A   Mostly Cloudy
3:54 PM 52.0 °F - 27.0 °F 38% 30.13 in 10.0 mi NW 17.3 mph 27.6 mph N/A   Scattered Clouds
4:54 PM 54.0 °F - 25.0 °F 33% 30.11 in 10.0 mi NNW 21.9 mph 31.1 mph N/A   Scattered Clouds
5:54 PM 52.0 °F - 21.9 °F 31% 30.09 in 10.0 mi WNW 18.4 mph 24.2 mph N/A   Partly Cloudy
6:54 PM 50.0 °F - 19.9 °F 31% 30.10 in 10.0 mi WNW 16.1 mph - N/A   Partly Cloudy
7:54 PM 48.0 °F - 12.0 °F 24% 30.10 in 10.0 mi NNW 12.7 mph 21.9 mph N/A   Clear
8:54 PM 45.0 °F 40.1 °F 10.0 °F 24% 30.09 in 10.0 mi NNW 9.2 mph - N/A   Clear
9:54 PM 44.1 °F 37.7 °F 10.9 °F 26% 30.10 in 10.0 mi NNW 12.7 mph 19.6 mph N/A   Clear
10:54 PM 43.0 °F 36.0 °F 8.1 °F 24% 30.10 in 10.0 mi North 13.8 mph - N/A   Clear
11:54 PM 39.9 °F 33.9 °F 10.9 °F 31% 30.10 in 10.0 mi NNE 9.2 mph - N/A   Clear